Weather History for Chattanooga, TN

Change the Weather History Date:

Thursday, March 7, 2013

  Actual Average Record
Temperature  
Mean Temperature 43 °F 50 °F  
Max Temperature 51 °F 61 °F 82 °F (2000)
Min Temperature 34 °F 39 °F 2 °F (1899)
Degree Days  
Heating Degree Days 22 15  
Month to date heating degree days 174 113  
Since 1 July heating degree days 2490 2735  
Cooling Degree Days 0 0  
Month to date cooling degree days 0 0  
Year to date cooling degree days 2 0  
Moisture  
Dew Point 28 °F    
Average Humidity 61    
Maximum Humidity 75    
Minimum Humidity 46    
Precipitation  
Precipitation 0.00 in 0.16 in 2.16 in (1961)
Month to date precipitation 0.43 1.15  
Year to date precipitation 14.11 10.90  
Snow  
Snow 0.00 in 0.10 in - ()
Month to date snowfall T 0.4  
Since 1 July snowfall 0.3 3.0  
Snow Depth 0.00 in    
Sea Level Pressure  
Sea Level Pressure 30.31 in    
Wind  
Wind Speed 10 mph (North)    
Max Wind Speed 17 mph    
Max Gust Speed 23 mph    
Visibility 10 miles    
Events      
T = Trace of Precipitation, MM = Missing Value Source: NWS Daily Summary

Daily Weather History Graph

Daily Weather History Graph

Search for Another Location

Airport:

Trip Planner

Search our weather history database for the weather conditions in past years. The results will help you decide how hot, cold, wet, or windy it might be!

Date:

Astronomy

Mar. 07, 2013 Rise Set
Actual Time 7:02 AM EST 6:41 PM EST
Civil Twilight 6:36 AM EST 7:07 PM EST
Nautical Twilight 6:07 AM EST 7:36 PM EST
Astronomical Twilight 5:38 AM EST 8:06 PM EST
Moon 3:53 AM EST (3/7) 2:36 PM EST (3/7)
Length of Visible Light 12h 30m
Length of Day
11h 39m
Waning Crescent, 20% of the Moon is Illuminated
Mar 7
Waning Crescent
Mar 11
New
Mar 19
First Quarter
Mar 27
Full
Apr 3
Last Quarter

Hourly Weather History & Observations

Time (EST) Temp. Windchill Dew Point Humidity Pressure Visibility Wind Dir Wind Speed Gust Speed Precip Events Conditions
12:53 AM 36.0 °F 29.6 °F 26.1 °F 67% 30.26 in 10.0 mi NNW 8.1 mph - N/A   Overcast
1:53 AM 35.1 °F 29.3 °F 26.1 °F 70% 30.27 in 10.0 mi North 6.9 mph - N/A   Overcast
2:53 AM 35.1 °F 26.9 °F 26.1 °F 70% 30.27 in 10.0 mi North 11.5 mph - N/A   Overcast
3:53 AM 35.1 °F 27.9 °F 26.1 °F 70% 30.27 in 10.0 mi North 9.2 mph - N/A   Overcast
4:53 AM 35.1 °F 27.9 °F 27.0 °F 72% 30.29 in 10.0 mi North 9.2 mph - N/A   Overcast
5:53 AM 35.1 °F 26.9 °F 26.1 °F 70% 30.30 in 10.0 mi North 11.5 mph - N/A   Overcast
6:53 AM 33.8 °F 26.4 °F 26.6 °F 75% 30.30 in 10.0 mi North 9.2 mph - N/A   Overcast
7:53 AM 34.0 °F 25.5 °F 27.0 °F 75% 30.33 in 10.0 mi North 11.5 mph - N/A   Mostly Cloudy
8:53 AM 36.0 °F 27.1 °F 27.0 °F 70% 30.35 in 10.0 mi North 13.8 mph - N/A   Mostly Cloudy
9:53 AM 37.9 °F 30.9 °F 27.0 °F 65% 30.36 in 10.0 mi NNE 10.4 mph - N/A   Mostly Cloudy
10:38 AM 39.2 °F 31.2 °F 28.4 °F 65% 30.33 in 10.0 mi NNE 13.8 mph - N/A   Mostly Cloudy
10:53 AM 39.9 °F 32.5 °F 27.0 °F 60% 30.35 in 10.0 mi NNE 12.7 mph - N/A   Mostly Cloudy
11:53 AM 43.0 °F 38.2 °F 28.0 °F 56% 30.33 in 10.0 mi NNE 8.1 mph - N/A   Mostly Cloudy
12:53 PM 45.0 °F 39.7 °F 28.0 °F 52% 30.32 in 10.0 mi NNE 10.4 mph 18.4 mph N/A   Scattered Clouds
1:53 PM 46.0 °F 44.8 °F 28.0 °F 50% 30.29 in 10.0 mi Variable 3.5 mph - N/A   Scattered Clouds
2:53 PM 48.9 °F - 28.9 °F 46% 30.28 in 10.0 mi North 6.9 mph - N/A   Scattered Clouds
3:53 PM 50.0 °F - 30.0 °F 46% 30.27 in 10.0 mi North 11.5 mph - N/A   Clear
4:53 PM 50.0 °F - 30.0 °F 46% 30.28 in 10.0 mi NNE 9.2 mph - N/A   Clear
5:53 PM 46.9 °F - 30.0 °F 52% 30.29 in 10.0 mi NNE 8.1 mph - N/A   Clear
6:53 PM 43.0 °F 37.2 °F 30.0 °F 60% 30.31 in 10.0 mi NE 10.4 mph - N/A   Clear
7:53 PM 41.0 °F 34.3 °F 30.0 °F 65% 30.33 in 10.0 mi North 11.5 mph - N/A   Clear
8:53 PM 39.0 °F 32.3 °F 28.9 °F 67% 30.34 in 10.0 mi NNE 10.4 mph - N/A   Clear
9:53 PM 37.0 °F 31.0 °F 28.0 °F 70% 30.34 in 10.0 mi NNE 8.1 mph - N/A   Clear
10:53 PM 35.1 °F 28.6 °F 28.0 °F 76% 30.34 in 10.0 mi NNE 8.1 mph - N/A   Clear
11:53 PM 35.1 °F 27.4 °F 28.0 °F 76% 30.33 in 10.0 mi North 10.4 mph - N/A   Clear